Jacksonville, NC

10:23 PM EST on January 20, 2018 (GMT -0500)
Ellis

Weather History for KOAJ - March, 2013

Change the Weather History Date:

Saturday, March 16, 2013

  Actual Average Record
Temperature  
Mean Temperature 63 °F -  
Max Temperature 80 °F 61 °F 88 °F (2016)
Min Temperature 46 °F 40 °F 19 °F (2017)
Degree Days  
Heating Degree Days 2    
Growing Degree Days 13 (Base 50)    
Moisture  
Dew Point 43 °F    
Average Humidity 47    
Maximum Humidity 71    
Minimum Humidity 28    
Precipitation  
Precipitation 0.00 in - - ()
Sea Level Pressure  
Sea Level Pressure 29.84 in    
Wind  
Wind Speed 11 mph (SW)    
Max Wind Speed 24 mph    
Max Gust Speed 30 mph    
Visibility 10 miles    
Events      
Averages and records for this station are not official NWS values.
T = Trace of Precipitation, MM = Missing Value Source: NWS Daily Summary

Daily Weather History Graph

Daily Weather History Graph

Search for Another Location

Airport or City:

Trip Planner

Search our weather history database for the weather conditions in past years. The results will help you decide how hot, cold, wet, or windy it might be!

Date:

Astronomy

Mar. 16, 2013 Rise Set
Actual Time 7:19 AM EDT 7:19 PM EDT
Civil Twilight 6:54 AM EDT 7:44 PM EDT
Nautical Twilight 6:24 AM EDT 8:13 PM EDT
Astronomical Twilight 5:55 AM EDT 8:43 PM EDT
Moon 9:59 AM EDT (3/16) No Moon Set
Length of Visible Light 12h 50m
Length of Day
11h 59m
Waxing Crescent, 23% of the Moon is Illuminated
Mar 16
Waxing Crescent
Mar 19
First Quarter
Mar 27
Full
Apr 3
Last Quarter
Apr 10
New

Hourly Weather History & Observations

Time (EDT) Temp. Windchill Dew Point Humidity Pressure Visibility Wind Dir Wind Speed Gust Speed Precip Events Conditions
12:15 AM 46.4 °F 42.4 °F 35.6 °F 66% 29.97 in 10.0 mi SSW 8.1 mph - N/A   Clear
12:35 AM 46.4 °F 41.9 °F 35.6 °F 66% 29.96 in 10.0 mi SSW 9.2 mph - N/A   Clear
12:55 AM 46.4 °F 42.4 °F 37.4 °F 71% 29.96 in 10.0 mi SSW 8.1 mph - N/A   Clear
1:55 AM 46.4 °F 42.9 °F 37.4 °F 71% 29.94 in 10.0 mi SSW 6.9 mph - N/A   Clear
2:35 AM 51.8 °F - 39.2 °F 62% 29.92 in 10.0 mi SSW 10.4 mph - N/A   Clear
2:55 AM 55.4 °F - 39.2 °F 54% 29.91 in 10.0 mi SSW 13.8 mph 21.9 mph N/A   Clear
3:15 AM 57.2 °F - 39.2 °F 51% 29.91 in 10.0 mi SW 13.8 mph 19.6 mph N/A   Clear
3:35 AM 55.4 °F - 39.2 °F 54% 29.90 in 10.0 mi SSW 12.7 mph 24.2 mph N/A   Clear
3:55 AM 55.4 °F - 39.2 °F 54% 29.90 in 10.0 mi SW 11.5 mph 19.6 mph N/A   Clear
4:15 AM 55.4 °F - 39.2 °F 54% 29.90 in 10.0 mi SW 11.5 mph 16.1 mph N/A   Clear
4:35 AM 55.4 °F - 39.2 °F 54% 29.89 in 10.0 mi SW 11.5 mph - N/A   Clear
4:55 AM 55.4 °F - 39.2 °F 54% 29.89 in 10.0 mi SW 16.1 mph - N/A   Clear
5:15 AM 55.4 °F - 39.2 °F 54% 29.89 in 10.0 mi SW 12.7 mph - N/A   Clear
5:35 AM 55.4 °F - 39.2 °F 54% 29.89 in 10.0 mi SW 12.7 mph - N/A   Clear
5:55 AM 55.4 °F - 39.2 °F 54% 29.89 in 10.0 mi SW 11.5 mph 18.4 mph N/A   Clear
6:15 AM 55.4 °F - 39.2 °F 54% 29.89 in 10.0 mi SSW 11.5 mph - N/A   Clear
6:35 AM 55.4 °F - 39.2 °F 54% 29.90 in 10.0 mi SSW 9.2 mph - N/A   Clear
6:55 AM 55.4 °F - 39.2 °F 54% 29.90 in 10.0 mi SSW 9.2 mph - N/A   Clear
7:15 AM 55.4 °F - 39.2 °F 54% 29.90 in 10.0 mi SW 9.2 mph - N/A   Clear
7:35 AM 55.4 °F - 41.0 °F 58% 29.90 in 10.0 mi SW 9.2 mph - N/A   Partly Cloudy
7:55 AM 55.4 °F - 41.0 °F 58% 29.90 in 10.0 mi SW 11.5 mph - N/A   Partly Cloudy
8:15 AM 57.2 °F - 41.0 °F 55% 29.90 in 10.0 mi SSW 9.2 mph - N/A   Clear
8:35 AM 57.2 °F - 41.0 °F 55% 29.90 in 10.0 mi SW 10.4 mph - N/A   Clear
8:55 AM 57.2 °F - 41.0 °F 55% 29.90 in 10.0 mi SW 10.4 mph - N/A   Clear
9:15 AM 59.0 °F - 42.8 °F 55% 29.90 in 10.0 mi SW 10.4 mph 16.1 mph N/A   Clear
9:35 AM 60.8 °F - 42.8 °F 52% 29.90 in 10.0 mi SW 10.4 mph 16.1 mph N/A   Clear
9:55 AM 62.6 °F - 42.8 °F 48% 29.89 in 10.0 mi SW 12.7 mph 18.4 mph N/A   Clear
10:15 AM 64.4 °F - 42.8 °F 45% 29.89 in 10.0 mi SW 12.7 mph 20.7 mph N/A   Clear
10:35 AM 64.4 °F - 42.8 °F 45% 29.88 in 10.0 mi WSW 17.3 mph 23.0 mph N/A   Clear
10:55 AM 66.2 °F - 44.6 °F 46% 29.88 in 10.0 mi WSW 11.5 mph 19.6 mph N/A   Clear
11:15 AM 68.0 °F - 44.6 °F 43% 29.87 in 10.0 mi SW 13.8 mph 17.3 mph N/A   Clear
11:35 AM 69.8 °F - 44.6 °F 40% 29.87 in 10.0 mi WSW 10.4 mph 16.1 mph N/A   Clear
11:55 AM 69.8 °F - 44.6 °F 40% 29.86 in 10.0 mi SW 11.5 mph 17.3 mph N/A   Clear
12:15 PM 69.8 °F - 44.6 °F 40% 29.85 in 10.0 mi SSW 15.0 mph 19.6 mph N/A   Clear
12:35 PM 71.6 °F - 46.4 °F 41% 29.85 in 10.0 mi WSW 12.7 mph - N/A   Clear
12:55 PM 73.4 °F - 46.4 °F 38% 29.84 in 10.0 mi WSW 15.0 mph 21.9 mph N/A   Clear
1:15 PM 73.4 °F - 46.4 °F 38% 29.82 in 10.0 mi SW 11.5 mph - N/A   Clear
1:35 PM 73.4 °F - 46.4 °F 38% 29.82 in 10.0 mi SW 13.8 mph 19.6 mph N/A   Clear
1:55 PM 73.4 °F - 46.4 °F 38% 29.80 in 10.0 mi SSW 13.8 mph 20.7 mph N/A   Clear
2:15 PM 77.0 °F - 46.4 °F 34% 29.78 in 10.0 mi WSW 16.1 mph 21.9 mph N/A   Clear
2:35 PM 78.8 °F - 46.4 °F 32% 29.77 in 10.0 mi SSW 13.8 mph - N/A   Clear
2:55 PM 78.8 °F - 46.4 °F 32% 29.76 in 10.0 mi SSW 11.5 mph 24.2 mph N/A   Clear
3:15 PM 80.6 °F - 46.4 °F 30% 29.75 in 10.0 mi SW 19.6 mph - N/A   Clear
3:35 PM 80.6 °F - 46.4 °F 30% 29.74 in 10.0 mi SSW 16.1 mph 23.0 mph N/A   Clear
3:55 PM 80.6 °F - 46.4 °F 30% 29.74 in 10.0 mi WSW 17.3 mph 25.3 mph N/A   Clear
4:15 PM 80.6 °F - 46.4 °F 30% 29.73 in 10.0 mi SSW 18.4 mph 27.6 mph N/A   Clear
4:35 PM 80.6 °F - 46.4 °F 30% 29.73 in 10.0 mi SSW 17.3 mph 24.2 mph N/A   Clear
4:55 PM 80.6 °F - 44.6 °F 28% 29.72 in 10.0 mi SW 24.2 mph 29.9 mph N/A   Clear
5:15 PM 80.6 °F - 44.6 °F 28% 29.72 in 10.0 mi SW 15.0 mph 25.3 mph N/A   Clear
5:35 PM 78.8 °F - 44.6 °F 30% 29.72 in 10.0 mi SW 16.1 mph 25.3 mph N/A   Clear
5:55 PM 78.8 °F - 44.6 °F 30% 29.72 in 10.0 mi WSW 12.7 mph 20.7 mph N/A   Clear
6:15 PM 78.8 °F - 44.6 °F 30% 29.72 in 10.0 mi SW 16.1 mph 23.0 mph N/A   Clear
6:35 PM 78.8 °F - 44.6 °F 30% 29.72 in 10.0 mi SW 11.5 mph 20.7 mph N/A   Clear
6:55 PM 73.4 °F - 46.4 °F 38% 29.73 in 10.0 mi South 15.0 mph - N/A   Clear
7:15 PM 71.6 °F - 46.4 °F 41% 29.73 in 10.0 mi South 13.8 mph - N/A   Clear
7:35 PM 69.8 °F - 46.4 °F 43% 29.74 in 9.0 mi South 13.8 mph - N/A   Clear
7:55 PM 66.2 °F - 46.4 °F 49% 29.75 in 10.0 mi South 12.7 mph - N/A   Clear
8:15 PM 66.2 °F - 46.4 °F 49% 29.77 in 10.0 mi SSW 10.4 mph - N/A   Clear
8:35 PM 64.4 °F - 46.4 °F 52% 29.77 in 10.0 mi South 10.4 mph - N/A   Clear
8:55 PM 62.6 °F - 46.4 °F 55% 29.79 in 10.0 mi South 9.2 mph - N/A   Clear
9:15 PM 62.6 °F - 46.4 °F 55% 29.80 in 10.0 mi South 9.2 mph - N/A   Clear
9:35 PM 60.8 °F - 46.4 °F 59% 29.81 in 10.0 mi SSW 9.2 mph - N/A   Clear
9:55 PM 62.6 °F - 46.4 °F 55% 29.82 in 10.0 mi SSW 9.2 mph - N/A   Clear
10:15 PM 62.6 °F - 46.4 °F 55% 29.83 in 10.0 mi SSW 9.2 mph - N/A   Clear
10:35 PM 62.6 °F - 46.4 °F 55% 29.85 in 10.0 mi SW 9.2 mph 17.3 mph N/A   Scattered Clouds
10:55 PM 62.6 °F - 46.4 °F 55% 29.86 in 10.0 mi SW 9.2 mph - N/A   Mostly Cloudy
11:15 PM 62.6 °F - 44.6 °F 52% 29.86 in 10.0 mi SW 8.1 mph - N/A   Overcast
11:35 PM 62.6 °F - 44.6 °F 52% 29.87 in 10.0 mi SW 9.2 mph - N/A   Mostly Cloudy
11:55 PM 60.8 °F - 44.6 °F 55% 29.87 in 10.0 mi SSW 6.9 mph - N/A   Partly Cloudy